Regional Weather Roundup
Issued by NWS New Orleans/Baton Rouge, LA

Current Version | Previous Version | Text Only | Print | Product List | Glossary On
Versions: 1 2 3 4 5 6 7 8 9 10 11 12 13 14 15 16 17 18 19 20 21 22 23 24 25 26 27 28 29 30 31 32 33 34 35 36 37 38 39 40 41 42 43 44 45 46 47 48 49 50
000
ASUS44 KLIX 031511
RWRLIX
NEW ORLEANS REGIONAL WEATHER ROUNDUP
NATIONAL WEATHER SERVICE NEW ORLEANS LA
1000 AM CDT WED JUN 03 2015

NOTE: "FAIR" INDICATES FEW OR NO CLOUDS BELOW 12,000 FEET WITH NO
      SIGNIFICANT WEATHER AND/OR OBSTRUCTIONS TO VISIBILITY.
      SKY/WX - SKY CONDITION AND SIGNIFICANT WEATHER.
      TMP - AIR TEMPERATURE.     DP    - DEWPOINT TEMPERATURE.
      RH  - RELATIVE HUMIDITY.   PRES  - PRESSURE.
      HI  - HEAT INDEX.          WCI   - WIND CHILL INDEX.

*  THESE STATIONS ARE NOT NWS OR FAA STATIONS AND ARE NOT UNDER
   NWS QUALITY CONTROL.

LAZ038-040-048-061>063-065>067-069-031600-
SOUTHEAST LOUISIANA

CITY           SKY/WX    TMP DP  RH WIND       PRES   REMARKS
N.O. AUDUBON     N/A     84  70  62 MISG        N/A
N.O. INTL ARPT MOSUNNY   83  69  62 NE6       29.95S
N.O. LAKEFRONT SUNNY     82  69  64 NE7       29.96S
SLIDELL        SUNNY     79  70  74 VRB3      29.95S
BATON ROUGE    SUNNY     79  67  66 E7        29.97S
BOOTHVILLE     MOSUNNY   83  69  62 CALM      29.95S
BELLE CHASSE   MOSUNNY   81  69  67 CALM      29.94F
BOGALUSA*        N/A     78  65  63 NE5       29.99S
GALLIANO*      SUNNY     84  69  61 CALM      29.95S
NEW ROADS*       N/A    N/A N/A N/A NE5       29.97S
GONZALES*        N/A     79  70  72 NE5       29.95S
HAMMOND*       SUNNY     81  64  57 CALM      29.98F
HOUMA*         SUNNY     82  72  69 NE5       29.95S
PORT FOURCHON* PTSUNNY   84  70  61 NW8       29.96S

$$

MSZ070-080>082-031600-
SOUTHERN MISSISSIPPI

CITY           SKY/WX    TMP DP  RH WIND       PRES   REMARKS
MCCOMB         SUNNY     78  64  61 VRB5      29.99S
GULFPORT       CLOUDY    78  67  68 NE6       29.95S
BILOXI         PTSUNNY   81  69  68 NE7       29.95S
PASCAGOULA     MOSUNNY   80  70  71 NE6       29.95F
STENNIS ARPT*  SUNNY     79  64  61 MISG      29.96S

$$

COASTAL OBSERVATIONS
LAKE AND NEARSHORE STATIONS

STATION/POSITION TIME  TEMP    WIND        PRES    WAVE
                       AIR SEA DIR/SP/G            HT/PER
                 (UTC) (F)     (DEG/KT/KT) (MB)    (FT/S)
PASCAGOULA       1400   76      50/  7/ 10 1013.6
WAVELAND YACHT   1400   75 81   70/  6/  8 1014.5
GRAND ISLE       1400   82 85   40/  4/  7 1014.2
SOUTHWEST PASS   1400   81 75  310/  9/ 10 1014.6
NEW CANAL        1400   78 82   50/  7/  8 1013.5
SHELL BEACH      1400   78 84   60/  6/  9 1013.6

OFFSHORE STATIONS

STATION/POSITION TIME  TEMP    WIND        PRES    WAVE
                       AIR SEA DIR/SP/G            HT/PER
                 (UTC) (F)     (DEG/KT/KT) (MB)    (FT/S)
64 S DAUPHIN ISL 1450   80 82  350/  6/  8 1014.0    1

$$



USA.gov is the U.S. government's official web portal to all federal, state and local government web resources and services.